When you browse on this site, cookies collect data to enhance your experience and personalize the content and advertising you see.
Visit our Privacy Policy to learn more. By continuing to use the site, you agree to this use of cookies and data.
  • In Schweiz
  • Länderverzeichnis
  • Für 7 Tage
  • Wassertemperatur
  • Satellitenkarten
  • Wetterkarte
  • Widgets
  • user-avatar
    Anmelden

    Stündliche Wetter Quito

    Heute, 20 Januar, Sonntag

    Zeit Temperatur Niederschläge Wind Luftdruck Luftfeuchtigkeit
    00:00 +16°C° 0 mm 1 m/S 622 mmHg 96%
    01:00 +16°C° 0 mm 2 m/S 621 mmHg 97%
    02:00 +16°C° 0.1 mm 1 m/S 621 mmHg 97%
    03:00 +15°C° 0.1 mm 1 m/S 621 mmHg 97%
    04:00 +15°C° 0.1 mm 1 m/S 621 mmHg 98%
    05:00 +16°C° 0.6 mm 2 m/S 622 mmHg 97%
    06:00 +16°C° 0.6 mm 2 m/S 622 mmHg 97%
    07:00 +17°C° 0.6 mm 2 m/S 622 mmHg 96%
    08:00 +17°C° 0.5 mm 2 m/S 623 mmHg 94%
    09:00 +18°C° 0.5 mm 2 m/S 623 mmHg 92%
    10:00 +19°C° 0.5 mm 3 m/S 623 mmHg 90%
    11:00 +20°C° 0.7 mm 2 m/S 623 mmHg 84%
    12:00 +23°C° 0.7 mm 2 m/S 624 mmHg 79%
    13:00 +24°C° 0.7 mm 1 m/S 624 mmHg 73%
    14:00 +24°C° 0.9 mm 2 m/S 623 mmHg 77%
    15:00 +23°C° 0.9 mm 2 m/S 622 mmHg 82%
    16:00 +21°C° 0.9 mm 3 m/S 622 mmHg 86%
    17:00 +20°C° 1.7 mm 2 m/S 622 mmHg 88%
    18:00 +19°C° 1.7 mm 2 m/S 622 mmHg 91%
    19:00 +18°C° 1.7 mm 2 m/S 622 mmHg 93%
    20:00 +18°C° 0.8 mm 2 m/S 622 mmHg 94%
    21:00 +18°C° 0.8 mm 2 m/S 623 mmHg 95%
    22:00 +17°C° 0.8 mm 2 m/S 623 mmHg 95%
    23:00 +17°C° 0.1 mm 2 m/S 623 mmHg 96%

    Morgen, 21 Januar, Montag

    Zeit Temperatur Niederschläge Wind Luftdruck Luftfeuchtigkeit
    00:00 +17°C° 0.1 mm 2 m/S 623 mmHg 96%
    01:00 +17°C° 0.1 mm 2 m/S 622 mmHg 97%
    02:00 +17°C° 0.3 mm 2 m/S 622 mmHg 97%
    03:00 +17°C° 0.3 mm 2 m/S 622 mmHg 97%
    04:00 +17°C° 0.3 mm 2 m/S 622 mmHg 97%
    05:00 +17°C° 0.2 mm 2 m/S 622 mmHg 97%
    06:00 +17°C° 0.2 mm 2 m/S 623 mmHg 96%
    07:00 +18°C° 0.2 mm 2 m/S 623 mmHg 95%
    08:00 +18°C° 0.5 mm 2 m/S 624 mmHg 93%
    09:00 +20°C° 0.5 mm 1 m/S 624 mmHg 91%
    10:00 +21°C° 0.5 mm 1 m/S 624 mmHg 89%
    11:00 +20°C° 0.7 mm 2 m/S 624 mmHg 88%
    12:00 +21°C° 0.7 mm 2 m/S 623 mmHg 86%
    13:00 +21°C° 0.7 mm 3 m/S 623 mmHg 85%
    14:00 +21°C° 0.9 mm 2 m/S 622 mmHg 86%
    15:00 +21°C° 0.9 mm 2 m/S 622 mmHg 87%
    16:00 +21°C° 0.9 mm 2 m/S 621 mmHg 88%
    17:00 +20°C° 0.5 mm 2 m/S 621 mmHg 89%
    18:00 +19°C° 0.5 mm 2 m/S 621 mmHg 91%
    19:00 +18°C° 0.5 mm 2 m/S 622 mmHg 93%
    20:00 +18°C° 0.7 mm 2 m/S 622 mmHg 94%
    21:00 +18°C° 0.7 mm 2 m/S 623 mmHg 95%
    22:00 +18°C° 0.7 mm 1 m/S 623 mmHg 96%
    23:00 +17°C° 1.7 mm 2 m/S 623 mmHg 96%

    übermorgen, 22 Januar, Dienstag

    Zeit Temperatur Niederschläge Wind Luftdruck Luftfeuchtigkeit
    00:00 +17°C° 1.7 mm 2 m/S 623 mmHg 96%
    01:00 +17°C° 1.7 mm 2 m/S 622 mmHg 97%
    02:00 +17°C° 1.4 mm 2 m/S 622 mmHg 97%
    03:00 +17°C° 1.4 mm 2 m/S 622 mmHg 97%
    04:00 +17°C° 1.4 mm 2 m/S 622 mmHg 97%
    05:00 +18°C° 0.8 mm 1 m/S 622 mmHg 97%
    06:00 +18°C° 0.8 mm 1 m/S 622 mmHg 97%
    07:00 +18°C° 0.8 mm 1 m/S 622 mmHg 97%
    08:00 +18°C° 0.4 mm 1 m/S 623 mmHg 96%
    09:00 +18°C° 0.4 mm 2 m/S 623 mmHg 95%
    10:00 +18°C° 0.4 mm 2 m/S 623 mmHg 94%
    11:00 +20°C° 0.7 mm 2 m/S 623 mmHg 87%
    12:00 +23°C° 0.7 mm 2 m/S 623 mmHg 80%
    13:00 +24°C° 0.7 mm 2 m/S 623 mmHg 73%
    14:00 +24°C° 1.2 mm 2 m/S 622 mmHg 76%
    15:00 +24°C° 1.2 mm 2 m/S 622 mmHg 78%
    16:00 +23°C° 1.2 mm 2 m/S 621 mmHg 81%
    17:00 +21°C° 1.1 mm 2 m/S 621 mmHg 85%
    18:00 +19°C° 1.1 mm 2 m/S 621 mmHg 89%
    19:00 +18°C° 1.1 mm 2 m/S 621 mmHg 93%
    20:00 +18°C° 0.3 mm 2 m/S 621 mmHg 93%
    21:00 +17°C° 0.3 mm 2 m/S 622 mmHg 94%
    22:00 +17°C° 0.3 mm 2 m/S 622 mmHg 94%
    23:00 +17°C° 0.3 mm 2 m/S 622 mmHg 95%

    23 Januar, Mittwoch

    Zeit Temperatur Niederschläge Wind Luftdruck Luftfeuchtigkeit
    00:00 +17°C° 0.3 mm 2 m/S 622 mmHg 95%
    01:00 +17°C° 0.3 mm 2 m/S 621 mmHg 95%
    02:00 +17°C° 0.9 mm 2 m/S 621 mmHg 95%
    03:00 +17°C° 0.9 mm 2 m/S 621 mmHg 96%
    04:00 +17°C° 0.9 mm 2 m/S 621 mmHg 96%
    05:00 +17°C° 0.2 mm 2 m/S 621 mmHg 96%
    06:00 +17°C° 0.2 mm 2 m/S 622 mmHg 95%
    07:00 +17°C° 0.2 mm 2 m/S 622 mmHg 95%
    08:00 +18°C° 0.2 mm 2 m/S 623 mmHg 93%
    09:00 +20°C° 0.2 mm 1 m/S 623 mmHg 91%
    10:00 +21°C° 0.2 mm 1 m/S 623 mmHg 88%
    11:00 +21°C° 0.1 mm 2 m/S 623 mmHg 78%
    12:00 +24°C° 0.1 mm 2 m/S 623 mmHg 67%
    13:00 +26°C° 0.1 mm 2 m/S 623 mmHg 57%
    14:00 +26°C° 0 mm 2 m/S 623 mmHg 59%
    15:00 +25°C° 0 mm 2 m/S 622 mmHg 61%
    16:00 +25°C° 0 mm 3 m/S 621 mmHg 63%
    17:00 +23°C° 0.1 mm 2 m/S 621 mmHg 70%
    18:00 +21°C° 0.1 mm 1 m/S 621 mmHg 78%
    19:00 +17°C° 0.1 mm 0 m/S 621 mmHg 85%
    20:00 +19°C° 0.1 mm 1 m/S 621 mmHg 85%
    21:00 +19°C° 0.1 mm 1 m/S 622 mmHg 86%
    22:00 +19°C° 0.1 mm 1 m/S 622 mmHg 86%
    23:00 +19°C° 0.1 mm 1 m/S 622 mmHg 87%

    24 Januar, Donnerstag

    Zeit Temperatur Niederschläge Wind Luftdruck Luftfeuchtigkeit
    00:00 +18°C° 0.1 mm 1 m/S 621 mmHg 89%
    01:00 +18°C° 0.1 mm 1 m/S 621 mmHg 90%
    02:00 +18°C° 0 mm 1 m/S 621 mmHg 90%
    03:00 +18°C° 0 mm 1 m/S 621 mmHg 90%
    04:00 +18°C° 0 mm 1 m/S 620 mmHg 91%
    05:00 +18°C° 0 mm 1 m/S 621 mmHg 89%
    06:00 +19°C° 0 mm 1 m/S 621 mmHg 88%
    07:00 +17°C° 0 mm 0 m/S 622 mmHg 86%
    08:00 +20°C° 0 mm 0 m/S 623 mmHg 76%
    09:00 +23°C° 0 mm 0 m/S 624 mmHg 66%
    10:00 +26°C° 0 mm 0 m/S 625 mmHg 56%
    11:00 +28°C° 0 mm 1 m/S 624 mmHg 51%
    12:00 +29°C° 0 mm 3 m/S 624 mmHg 47%
    13:00 +29°C° 0 mm 4 m/S 623 mmHg 43%
    14:00 +28°C° 0 mm 3 m/S 623 mmHg 46%
    15:00 +28°C° 0 mm 2 m/S 622 mmHg 50%
    16:00 +27°C° 0 mm 2 m/S 621 mmHg 53%
    17:00 +25°C° 0.1 mm 2 m/S 621 mmHg 62%
    18:00 +23°C° 0.1 mm 1 m/S 621 mmHg 71%
    19:00 +21°C° 0.1 mm 1 m/S 621 mmHg 79%
    20:00 +20°C° 0 mm 1 m/S 621 mmHg 80%
    21:00 +20°C° 0 mm 1 m/S 622 mmHg 80%
    22:00 +19°C° 0 mm 1 m/S 622 mmHg 81%
    23:00 +19°C° 0 mm 1 m/S 622 mmHg 82%

    25 Januar, Freitag

    Zeit Temperatur Niederschläge Wind Luftdruck Luftfeuchtigkeit
    00:00 +18°C° 0 mm 1 m/S 621 mmHg 83%
    01:00 +16°C° 0 mm 0 m/S 621 mmHg 83%
    02:00 +16°C° 0 mm 0 m/S 621 mmHg 85%
    03:00 +16°C° 0 mm 1 m/S 621 mmHg 87%
    04:00 +16°C° 0 mm 1 m/S 621 mmHg 89%
    05:00 +18°C° 0 mm 1 m/S 622 mmHg 87%
    06:00 +17°C° 0 mm 0 m/S 622 mmHg 85%
    07:00 +17°C° 0 mm 0 m/S 623 mmHg 83%
    08:00 +22°C° 0 mm 1 m/S 624 mmHg 75%
    09:00 +24°C° 0 mm 2 m/S 624 mmHg 66%
    10:00 +27°C° 0 mm 2 m/S 625 mmHg 57%
    11:00 +27°C° 0 mm 3 m/S 625 mmHg 53%
    12:00 +28°C° 0 mm 3 m/S 624 mmHg 50%
    13:00 +28°C° 0 mm 3 m/S 624 mmHg 46%
    14:00 +28°C° 0 mm 3 m/S 623 mmHg 48%
    15:00 +28°C° 0 mm 3 m/S 623 mmHg 50%
    16:00 +28°C° 0 mm 2 m/S 622 mmHg 52%
    17:00 +26°C° 0 mm 2 m/S 622 mmHg 59%
    18:00 +23°C° 0 mm 2 m/S 622 mmHg 66%
    19:00 +21°C° 0 mm 1 m/S 621 mmHg 73%
    20:00 +21°C° 0 mm 1 m/S 622 mmHg 74%
    21:00 +20°C° 0 mm 1 m/S 622 mmHg 76%
    22:00 +19°C° 0 mm 1 m/S 622 mmHg 78%
    23:00 +19°C° 0 mm 1 m/S 622 mmHg 79%
    Mehr zeigen